AFL2602 UWGG-UUDD

Flight info

Callsign AFL2602
Flight time 1h 6m
Altitude 18000
Route UWGG LARNO OKNAN URAGO UUDD
Aircraft YK40/M-SG/L

Departure

Time 2026-04-24 13:01
Airport Nizhny Novgorod / Strigino International Airport (UWGG)

Arrival

Time 2026-04-24 14:07
Airport Domodedovo International Airport (UUDD)
Time Latitude Longitude Altitude Speed Heading
2026-04-24 12:44 56.22224 43.78845 258 ft 0 kts 147°
2026-04-24 12:47 56.22219 43.78851 258 ft 1 kts 146°
2026-04-24 12:47 56.22205 43.78867 258 ft 3 kts 148°
2026-04-24 12:48 56.22176 43.78881 258 ft 5 kts 182°
2026-04-24 12:48 56.22134 43.78870 258 ft 5 kts 191°
2026-04-24 12:48 56.22091 43.78854 258 ft 5 kts 195°
2026-04-24 12:48 56.22066 43.78812 258 ft 4 kts 261°
2026-04-24 12:49 56.22075 43.78757 258 ft 4 kts 303°
2026-04-24 12:49 56.22109 43.78709 258 ft 8 kts 338°
2026-04-24 12:49 56.22184 43.78718 258 ft 11 kts 12°
2026-04-24 12:49 56.22271 43.78752 258 ft 12 kts 12°
2026-04-24 12:50 56.22368 43.78787 258 ft 13 kts 11°
2026-04-24 12:50 56.22467 43.78842 258 ft 14 kts 21°
2026-04-24 12:50 56.22573 43.78884 258 ft 14 kts 12°
2026-04-24 12:50 56.22667 43.78920 258 ft 12 kts 12°
2026-04-24 12:51 56.22747 43.78950 258 ft 10 kts 11°
2026-04-24 12:51 56.22817 43.78975 258 ft 10 kts 11°
2026-04-24 12:51 56.22889 43.79001 258 ft 10 kts 12°
2026-04-24 12:51 56.22961 43.79028 258 ft 10 kts 12°
2026-04-24 12:52 56.23036 43.79056 258 ft 11 kts 12°
2026-04-24 12:52 56.23114 43.79085 258 ft 11 kts 11°
2026-04-24 12:52 56.23192 43.79113 258 ft 11 kts 11°
2026-04-24 12:52 56.23273 43.79142 258 ft 11 kts 11°
2026-04-24 12:53 56.23355 43.79171 258 ft 12 kts 12°
2026-04-24 12:53 56.23438 43.79201 258 ft 12 kts 12°
2026-04-24 12:53 56.23522 43.79227 258 ft 12 kts
2026-04-24 12:53 56.23611 43.79234 258 ft 12 kts
2026-04-24 12:54 56.23701 43.79241 258 ft 13 kts
2026-04-24 12:54 56.23795 43.79248 258 ft 13 kts
2026-04-24 12:54 56.23891 43.79255 258 ft 12 kts
2026-04-24 12:54 56.23968 43.79261 258 ft 7 kts
2026-04-24 12:55 56.24013 43.79263 258 ft 5 kts 353°
2026-04-24 12:55 56.24049 43.79241 258 ft 4 kts 329°
2026-04-24 12:55 56.24069 43.79211 258 ft 2 kts 312°
2026-04-24 12:55 56.24074 43.79199 258 ft 0 kts 303°
2026-04-24 12:57 56.24078 43.79187 258 ft 3 kts 302°
2026-04-24 12:57 56.24091 43.79151 258 ft 2 kts 301°
2026-04-24 12:58 56.24100 43.79125 258 ft 2 kts 301°
2026-04-24 12:58 56.24113 43.79082 258 ft 5 kts 298°
2026-04-24 12:58 56.24115 43.79019 258 ft 5 kts 247°
2026-04-24 12:58 56.24094 43.78983 258 ft 3 kts 204°
2026-04-24 12:59 56.24082 43.78977 258 ft 0 kts 191°
2026-04-24 12:59 56.24081 43.78976 258 ft 0 kts 191°
2026-04-24 13:00 56.24015 43.78953 258 ft 30 kts 191°
2026-04-24 13:00 56.23558 43.78784 258 ft 94 kts 189°
2026-04-24 13:00 56.22689 43.78422 404 ft 132 kts 194°
2026-04-24 13:01 56.21728 43.78055 882 ft 140 kts 187°
2026-04-24 13:01 56.20735 43.77792 1265 ft 153 kts 184°
2026-04-24 13:01 56.19567 43.77504 1648 ft 171 kts 189°
2026-04-24 13:01 56.18395 43.76667 2236 ft 177 kts 203°
2026-04-24 13:02 56.17240 43.75567 2646 ft 190 kts 205°
2026-04-24 13:02 56.16044 43.74461 3051 ft 200 kts 203°
2026-04-24 13:02 56.14762 43.73332 3486 ft 207 kts 202°
2026-04-24 13:02 56.13390 43.72133 3915 ft 215 kts 203°
2026-04-24 13:03 56.11961 43.70889 4375 ft 220 kts 202°
2026-04-24 13:03 56.10515 43.69644 4767 ft 227 kts 202°
2026-04-24 13:03 56.08999 43.68336 5223 ft 230 kts 203°
2026-04-24 13:03 56.07552 43.67056 5828 ft 224 kts 204°
2026-04-24 13:04 56.06097 43.65779 6319 ft 226 kts 204°
2026-04-24 13:04 56.04696 43.64547 6779 ft 227 kts 204°
2026-04-24 13:04 56.03270 43.63309 7246 ft 228 kts 205°
2026-04-24 13:04 56.01915 43.61889 7744 ft 227 kts 215°
2026-04-24 13:05 56.00760 43.59997 8236 ft 226 kts 226°
2026-04-24 13:05 55.99721 43.57836 8700 ft 226 kts 231°
2026-04-24 13:05 55.98695 43.55683 9137 ft 227 kts 231°
2026-04-24 13:05 55.97640 43.53513 9573 ft 228 kts 231°
2026-04-24 13:06 55.96572 43.51350 10009 ft 228 kts 231°
2026-04-24 13:06 55.95506 43.49219 10447 ft 228 kts 231°
2026-04-24 13:06 55.94422 43.47083 10888 ft 227 kts 232°
2026-04-24 13:06 55.93344 43.44907 11337 ft 226 kts 232°
2026-04-24 13:07 55.92260 43.42754 11702 ft 229 kts 233°
2026-04-24 13:07 55.91194 43.40494 12087 ft 231 kts 234°
2026-04-24 13:07 55.90134 43.38279 12458 ft 233 kts 233°
2026-04-24 13:07 55.89056 43.36046 12827 ft 234 kts 233°
2026-04-24 13:08 55.87960 43.33787 13152 ft 238 kts 232°
2026-04-24 13:08 55.86845 43.31491 13472 ft 241 kts 232°
2026-04-24 13:08 55.85725 43.29189 13799 ft 244 kts 232°
2026-04-24 13:09 55.83448 43.24523 14471 ft 247 kts 232°
2026-04-24 13:09 55.82317 43.22213 14806 ft 249 kts 232°
2026-04-24 13:09 55.81158 43.19852 15146 ft 250 kts 232°
2026-04-24 13:09 55.80044 43.17395 15519 ft 247 kts 240°
2026-04-24 13:10 55.79191 43.14771 15897 ft 244 kts 248°
2026-04-24 13:10 55.78507 43.12026 16257 ft 242 kts 254°
2026-04-24 13:10 55.78072 43.09186 16628 ft 238 kts 265°
2026-04-24 13:10 55.77812 43.06206 16916 ft 241 kts 266°
2026-04-24 13:11 55.77541 43.03122 17144 ft 247 kts 266°
2026-04-24 13:11 55.77259 43.00007 17382 ft 252 kts 266°
2026-04-24 13:11 55.76972 42.96895 17525 ft 257 kts 266°
2026-04-24 13:11 55.76676 42.93691 17452 ft 264 kts 266°
2026-04-24 13:12 55.76378 42.90471 17443 ft 267 kts 265°
2026-04-24 13:12 55.76074 42.87199 17430 ft 269 kts 265°
2026-04-24 13:12 55.75769 42.83916 17424 ft 271 kts 265°
2026-04-24 13:12 55.75460 42.80580 17420 ft 273 kts 265°
2026-04-24 13:13 55.75152 42.77257 17419 ft 274 kts 265°
2026-04-24 13:13 55.74832 42.73819 17420 ft 275 kts 265°
2026-04-24 13:13 55.74517 42.70434 17417 ft 276 kts 265°
2026-04-24 13:13 55.74169 42.67012 17429 ft 276 kts 264°
2026-04-24 13:14 55.73806 42.63618 17420 ft 279 kts 264°
2026-04-24 13:14 55.73454 42.60230 17419 ft 281 kts 264°
2026-04-24 13:14 55.73095 42.56744 17419 ft 282 kts 265°
2026-04-24 13:14 55.72738 42.53251 17421 ft 283 kts 264°
2026-04-24 13:15 55.72385 42.49793 17421 ft 284 kts 264°
2026-04-24 13:15 55.72024 42.46274 17420 ft 285 kts 265°
2026-04-24 13:15 55.71663 42.42733 17419 ft 286 kts 265°
2026-04-24 13:15 55.71307 42.39257 17419 ft 287 kts 265°
2026-04-24 13:16 55.70902 42.35716 17424 ft 289 kts 263°
2026-04-24 13:16 55.70478 42.32154 17403 ft 289 kts 263°
2026-04-24 13:16 55.70061 42.28576 17394 ft 289 kts 263°
2026-04-24 13:16 55.69647 42.24989 17392 ft 289 kts 263°
2026-04-24 13:17 55.69225 42.21341 17391 ft 289 kts 263°
2026-04-24 13:17 55.68814 42.17783 17391 ft 289 kts 263°
2026-04-24 13:17 55.68411 42.14303 17391 ft 289 kts 263°
2026-04-24 13:17 55.67989 42.10672 17391 ft 289 kts 263°
2026-04-24 13:18 55.67571 42.07081 17391 ft 289 kts 263°
2026-04-24 13:18 55.67157 42.03532 17391 ft 289 kts 263°
2026-04-24 13:18 55.66744 42.00004 17391 ft 289 kts 263°
2026-04-24 13:18 55.66328 41.96457 17390 ft 289 kts 263°
2026-04-24 13:19 55.65908 41.92887 17390 ft 289 kts 263°
2026-04-24 13:19 55.65496 41.89387 17389 ft 289 kts 263°
2026-04-24 13:19 55.65078 41.85852 17388 ft 290 kts 263°
2026-04-24 13:19 55.64655 41.82276 17389 ft 290 kts 263°
2026-04-24 13:20 55.64232 41.78706 17388 ft 290 kts 263°
2026-04-24 13:20 55.63809 41.75160 17388 ft 290 kts 263°
2026-04-24 13:20 55.63389 41.71648 17409 ft 289 kts 263°
2026-04-24 13:20 55.62967 41.68132 17423 ft 288 kts 263°
2026-04-24 13:21 55.62542 41.64596 17438 ft 288 kts 263°
2026-04-24 13:21 55.62120 41.61093 17450 ft 288 kts 263°
2026-04-24 13:21 55.61701 41.57635 17459 ft 288 kts 263°
2026-04-24 13:21 55.61278 41.54146 17469 ft 288 kts 263°
2026-04-24 13:22 55.60845 41.50584 17476 ft 288 kts 263°
2026-04-24 13:22 55.60412 41.47038 17482 ft 288 kts 263°
2026-04-24 13:22 55.59978 41.43487 17488 ft 288 kts 263°
2026-04-24 13:22 55.59553 41.40016 17497 ft 288 kts 263°
2026-04-24 13:23 55.59123 41.36516 17507 ft 288 kts 263°
2026-04-24 13:23 55.58694 41.33036 17518 ft 288 kts 262°
2026-04-24 13:23 55.58256 41.29484 17532 ft 289 kts 262°
2026-04-24 13:23 55.57833 41.25958 17556 ft 287 kts 264°
2026-04-24 13:24 55.57549 41.22365 17554 ft 286 kts 269°
2026-04-24 13:24 55.57447 41.18760 17522 ft 286 kts 274°
2026-04-24 13:24 55.57423 41.15171 17508 ft 286 kts 274°
2026-04-24 13:24 55.57385 41.11507 17526 ft 286 kts 273°
2026-04-24 13:25 55.57340 41.07924 17533 ft 286 kts 273°
2026-04-24 13:25 55.57291 41.04316 17537 ft 286 kts 273°
2026-04-24 13:25 55.57239 41.00739 17536 ft 286 kts 273°
2026-04-24 13:25 55.57188 40.97200 17536 ft 286 kts 273°
2026-04-24 13:26 55.57136 40.93594 17536 ft 286 kts 273°
2026-04-24 13:26 55.57087 40.90005 17536 ft 286 kts 272°
2026-04-24 13:26 55.57038 40.86390 17536 ft 286 kts 273°
2026-04-24 13:26 55.56991 40.82748 17536 ft 286 kts 273°
2026-04-24 13:27 55.56921 40.79148 17545 ft 286 kts 272°
2026-04-24 13:27 55.56847 40.75551 17538 ft 286 kts 272°
2026-04-24 13:27 55.56781 40.71941 17538 ft 286 kts 272°
2026-04-24 13:27 55.56720 40.68383 17538 ft 286 kts 272°
2026-04-24 13:28 55.56660 40.64785 17538 ft 286 kts 272°
2026-04-24 13:28 55.56599 40.61197 17539 ft 286 kts 272°
2026-04-24 13:28 55.56538 40.57604 17539 ft 286 kts 272°
2026-04-24 13:28 55.56476 40.54019 17539 ft 286 kts 272°
2026-04-24 13:29 55.56413 40.50429 17539 ft 286 kts 272°
2026-04-24 13:29 55.56349 40.46819 17539 ft 286 kts 272°
2026-04-24 13:29 55.56285 40.43267 17539 ft 286 kts 272°
2026-04-24 13:29 55.56219 40.39657 17539 ft 286 kts 272°
2026-04-24 13:30 55.56153 40.36102 17539 ft 286 kts 272°
2026-04-24 13:30 55.56086 40.32564 17539 ft 286 kts 272°
2026-04-24 13:30 55.56017 40.28997 17540 ft 286 kts 271°
2026-04-24 13:30 55.55946 40.25390 17543 ft 286 kts 271°
2026-04-24 13:31 55.55875 40.21827 17546 ft 286 kts 272°
2026-04-24 13:31 55.55803 40.18217 17549 ft 286 kts 272°
2026-04-24 13:31 55.55729 40.14631 17552 ft 286 kts 272°
2026-04-24 13:31 55.55653 40.10996 17556 ft 286 kts 271°
2026-04-24 13:32 55.55578 40.07456 17560 ft 286 kts 272°
2026-04-24 13:32 55.55501 40.03871 17560 ft 286 kts 271°
2026-04-24 13:32 55.55502 40.00299 17603 ft 283 kts 277°
2026-04-24 13:32 55.55643 39.96759 17534 ft 285 kts 278°
2026-04-24 13:33 55.55771 39.93232 17543 ft 285 kts 277°
2026-04-24 13:33 55.55888 39.89725 17557 ft 282 kts 277°
2026-04-24 13:33 55.55991 39.86329 17550 ft 272 kts 277°
2026-04-24 13:33 55.56128 39.83075 17406 ft 263 kts 281°
2026-04-24 13:34 55.56334 39.79843 17228 ft 257 kts 281°
2026-04-24 13:34 55.56522 39.76653 17026 ft 250 kts 280°
2026-04-24 13:34 55.56694 39.73573 16813 ft 246 kts 280°
2026-04-24 13:34 55.56858 39.70537 16592 ft 243 kts 280°
2026-04-24 13:35 55.57020 39.67473 16361 ft 240 kts 280°
2026-04-24 13:35 55.57180 39.64441 16126 ft 238 kts 280°
2026-04-24 13:35 55.57336 39.61450 15892 ft 236 kts 280°
2026-04-24 13:35 55.57493 39.58437 15652 ft 235 kts 279°
2026-04-24 13:36 55.57643 39.55541 15421 ft 233 kts 279°
2026-04-24 13:36 55.57791 39.52692 15192 ft 232 kts 279°
2026-04-24 13:36 55.57938 39.49849 14962 ft 231 kts 279°
2026-04-24 13:36 55.58092 39.46877 14722 ft 230 kts 279°
2026-04-24 13:37 55.58202 39.43914 14501 ft 230 kts 274°
2026-04-24 13:37 55.58026 39.40967 14319 ft 230 kts 265°
2026-04-24 13:37 55.57668 39.38119 14111 ft 230 kts 261°
2026-04-24 13:37 55.57295 39.35372 13881 ft 230 kts 262°
2026-04-24 13:38 55.56932 39.32603 13616 ft 231 kts 261°
2026-04-24 13:38 55.56569 39.29796 13341 ft 232 kts 261°
2026-04-24 13:38 55.56210 39.27002 13074 ft 233 kts 261°
2026-04-24 13:38 55.55853 39.24215 12848 ft 231 kts 262°
2026-04-24 13:39 55.55503 39.21482 12651 ft 228 kts 261°
2026-04-24 13:39 55.55154 39.18770 12450 ft 226 kts 261°
2026-04-24 13:39 55.54805 39.16053 12246 ft 225 kts 261°
2026-04-24 13:39 55.54462 39.13389 12043 ft 224 kts 261°
2026-04-24 13:40 55.54117 39.10717 11840 ft 223 kts 261°
2026-04-24 13:40 55.53776 39.08066 11639 ft 221 kts 261°
2026-04-24 13:40 55.53437 39.05416 11439 ft 220 kts 261°
2026-04-24 13:40 55.53104 39.02792 11240 ft 218 kts 261°
2026-04-24 13:41 55.52773 39.00165 11038 ft 217 kts 261°
2026-04-24 13:41 55.52450 38.97567 10838 ft 216 kts 261°
2026-04-24 13:41 55.52137 38.95027 10706 ft 212 kts 261°
2026-04-24 13:41 55.51827 38.92498 10589 ft 208 kts 261°
2026-04-24 13:42 55.51526 38.90027 10465 ft 205 kts 261°
2026-04-24 13:42 55.51234 38.87591 10336 ft 203 kts 261°
2026-04-24 13:42 55.50944 38.85171 10203 ft 201 kts 262°
2026-04-24 13:42 55.50652 38.82774 10070 ft 201 kts 259°
2026-04-24 13:43 55.50060 38.80546 9987 ft 202 kts 239°
2026-04-24 13:43 55.49121 38.78690 9894 ft 203 kts 225°
2026-04-24 13:43 55.47997 38.77187 9783 ft 203 kts 223°
2026-04-24 13:43 55.46928 38.75579 9656 ft 203 kts 224°
2026-04-24 13:44 55.45850 38.73964 9514 ft 204 kts 224°
2026-04-24 13:44 55.44748 38.72339 9373 ft 205 kts 224°
2026-04-24 13:44 55.43665 38.70746 9237 ft 205 kts 224°
2026-04-24 13:44 55.42557 38.69120 9100 ft 205 kts 224°
2026-04-24 13:45 55.41460 38.67514 8972 ft 205 kts 224°
2026-04-24 13:45 55.40372 38.65922 8894 ft 206 kts 224°
2026-04-24 13:45 55.39269 38.64307 8818 ft 206 kts 224°
2026-04-24 13:45 55.38169 38.62701 8745 ft 206 kts 224°
2026-04-24 13:46 55.37052 38.61069 8671 ft 206 kts 224°
2026-04-24 13:46 55.35953 38.59465 8599 ft 207 kts 224°
2026-04-24 13:46 55.34850 38.57857 8529 ft 207 kts 224°
2026-04-24 13:46 55.33751 38.56255 8459 ft 207 kts 224°
2026-04-24 13:47 55.32645 38.54646 8390 ft 206 kts 224°
2026-04-24 13:47 55.31529 38.53022 8321 ft 206 kts 224°
2026-04-24 13:47 55.30440 38.51439 8281 ft 205 kts 224°
2026-04-24 13:47 55.29335 38.49843 8250 ft 203 kts 224°
2026-04-24 13:48 55.28250 38.48288 8213 ft 202 kts 224°
2026-04-24 13:48 55.27166 38.46741 8174 ft 201 kts 224°
2026-04-24 13:48 55.26083 38.45196 8131 ft 201 kts 224°
2026-04-24 13:48 55.25001 38.43658 8090 ft 200 kts 224°
2026-04-24 13:49 55.23922 38.42124 8047 ft 200 kts 224°
2026-04-24 13:49 55.22805 38.40669 8018 ft 202 kts 213°
2026-04-24 13:49 55.21474 38.39900 8021 ft 205 kts 191°
2026-04-24 13:49 55.20037 38.40042 8019 ft 208 kts 169°
2026-04-24 13:50 55.18660 38.40783 8003 ft 208 kts 166°
2026-04-24 13:50 55.17279 38.41557 7985 ft 208 kts 165°
2026-04-24 13:50 55.15915 38.42347 8021 ft 205 kts 165°
2026-04-24 13:50 55.14571 38.43134 8025 ft 205 kts 164°
2026-04-24 13:51 55.13224 38.43924 8021 ft 205 kts 164°
2026-04-24 13:51 55.11877 38.44716 8019 ft 205 kts 165°
2026-04-24 13:51 55.10520 38.45421 8027 ft 204 kts 167°
2026-04-24 13:51 55.09149 38.46116 8018 ft 204 kts 166°
2026-04-24 13:52 55.07778 38.46743 8025 ft 202 kts 176°
2026-04-24 13:52 55.06418 38.46625 8063 ft 193 kts 199°
2026-04-24 13:52 55.05246 38.45649 8075 ft 184 kts 223°
2026-04-24 13:52 55.04319 38.44168 8069 ft 181 kts 226°
2026-04-24 13:53 55.03302 38.42818 8044 ft 184 kts 218°
2026-04-24 13:53 55.02185 38.41710 8004 ft 186 kts 211°
2026-04-24 13:53 55.01027 38.40664 7944 ft 188 kts 213°
2026-04-24 13:53 54.99892 38.39577 7888 ft 188 kts 219°
2026-04-24 13:54 54.99060 38.37913 7860 ft 178 kts 251°
2026-04-24 13:54 54.98904 38.35883 7824 ft 170 kts 284°
2026-04-24 13:54 54.99428 38.34102 7797 ft 166 kts 313°
2026-04-24 13:54 55.00319 38.32819 7768 ft 166 kts 320°
2026-04-24 13:55 55.01190 38.31529 7659 ft 160 kts 317°
2026-04-24 13:55 55.02007 38.30242 7516 ft 156 kts 317°
2026-04-24 13:55 55.02777 38.28936 7371 ft 153 kts 316°
2026-04-24 13:55 55.03542 38.27649 7214 ft 154 kts 316°
2026-04-24 13:56 55.04330 38.26347 7062 ft 155 kts 316°
2026-04-24 13:56 55.05109 38.25063 6911 ft 156 kts 316°
2026-04-24 13:56 55.05894 38.23765 6766 ft 156 kts 316°
2026-04-24 13:56 55.06686 38.22446 6592 ft 157 kts 317°
2026-04-24 13:57 55.07473 38.21129 6404 ft 160 kts 316°
2026-04-24 13:57 55.08274 38.19778 6235 ft 160 kts 317°
2026-04-24 13:57 55.09065 38.18393 6061 ft 161 kts 312°
2026-04-24 13:57 55.09825 38.16969 5901 ft 160 kts 315°
2026-04-24 13:58 55.10590 38.15568 5767 ft 158 kts 314°
2026-04-24 13:58 55.11346 38.14194 5633 ft 157 kts 316°
2026-04-24 13:58 55.12176 38.12975 5483 ft 156 kts 330°
2026-04-24 13:58 55.13171 38.12269 5351 ft 156 kts 345°
2026-04-24 13:59 55.14223 38.11858 5207 ft 156 kts 346°
2026-04-24 13:59 55.15279 38.11410 5037 ft 156 kts 345°
2026-04-24 13:59 55.16326 38.10932 4874 ft 153 kts 345°
2026-04-24 13:59 55.17357 38.10576 4697 ft 148 kts 351°
2026-04-24 14:00 55.18364 38.10298 4507 ft 144 kts 349°
2026-04-24 14:00 55.19335 38.09992 4296 ft 142 kts 344°
2026-04-24 14:00 55.20304 38.09611 4088 ft 142 kts 350°
2026-04-24 14:00 55.21268 38.09351 3888 ft 141 kts 347°
2026-04-24 14:01 55.22236 38.09095 3685 ft 140 kts 351°
2026-04-24 14:01 55.23190 38.08799 3484 ft 139 kts 349°
2026-04-24 14:01 55.24103 38.08292 3293 ft 136 kts 332°
2026-04-24 14:01 55.24871 38.07330 3101 ft 136 kts 326°
2026-04-24 14:02 55.25669 38.06416 2899 ft 137 kts 325°
2026-04-24 14:02 55.26455 38.05510 2701 ft 136 kts 328°
2026-04-24 14:02 55.27239 38.04574 2495 ft 137 kts 327°
2026-04-24 14:02 55.28050 38.03636 2387 ft 141 kts 328°
2026-04-24 14:03 55.28874 38.02699 2362 ft 138 kts 331°
2026-04-24 14:03 55.29675 38.01827 2399 ft 133 kts 329°
2026-04-24 14:03 55.30450 38.00947 2427 ft 132 kts 327°
2026-04-24 14:03 55.31208 38.00081 2441 ft 131 kts 326°
2026-04-24 14:04 55.31979 37.99197 2438 ft 131 kts 327°
2026-04-24 14:04 55.32734 37.98329 2505 ft 129 kts 327°
2026-04-24 14:04 55.33494 37.97433 2444 ft 133 kts 327°
2026-04-24 14:04 55.34235 37.96540 2197 ft 127 kts 326°
2026-04-24 14:05 55.34953 37.95667 1958 ft 121 kts 326°
2026-04-24 14:05 55.35629 37.94833 1710 ft 119 kts 326°
2026-04-24 14:05 55.36284 37.94033 1527 ft 108 kts 327°
2026-04-24 14:05 55.36888 37.93326 1326 ft 103 kts 328°
2026-04-24 14:06 55.37475 37.92661 1196 ft 97 kts 329°
2026-04-24 14:06 55.38029 37.92035 1037 ft 94 kts 329°
2026-04-24 14:06 55.38567 37.91418 872 ft 90 kts 328°
2026-04-24 14:06 55.39088 37.90810 735 ft 89 kts 328°
2026-04-24 14:07 55.39588 37.90229 611 ft 79 kts 328°
2026-04-24 14:07 55.39986 37.89762 597 ft 57 kts 326°
2026-04-24 14:07 55.40255 37.89441 597 ft 34 kts 326°
2026-04-24 14:07 55.40391 37.89278 597 ft 13 kts 326°
2026-04-24 14:08 55.40476 37.89179 597 ft 15 kts 326°
2026-04-24 14:08 55.40569 37.89069 597 ft 17 kts 327°
2026-04-24 14:08 55.40669 37.88948 597 ft 17 kts 326°
2026-04-24 14:08 55.40764 37.88840 597 ft 15 kts 333°
2026-04-24 14:09 55.40862 37.88778 597 ft 14 kts 346°
2026-04-24 14:09 55.40956 37.88755 597 ft 12 kts 355°
2026-04-24 14:09 55.41040 37.88744 597 ft 11 kts 356°
2026-04-24 14:09 55.41113 37.88734 597 ft 8 kts 357°
2026-04-24 14:10 55.41166 37.88708 597 ft 10 kts 330°
2026-04-24 14:10 55.41219 37.88642 597 ft 8 kts 324°
2026-04-24 14:10 55.41260 37.88591 597 ft 6 kts 326°
2026-04-24 14:10 55.41297 37.88547 597 ft 6 kts 326°
2026-04-24 14:11 55.41340 37.88497 597 ft 8 kts 327°
2026-04-24 14:11 55.41392 37.88438 597 ft 9 kts 327°
2026-04-24 14:11 55.41512 37.88293 597 ft 11 kts 326°
2026-04-24 14:12 55.41577 37.88213 597 ft 11 kts 325°
2026-04-24 14:12 55.41647 37.88130 597 ft 12 kts 326°
2026-04-24 14:12 55.41722 37.88043 597 ft 12 kts 326°
2026-04-24 14:12 55.41793 37.87962 597 ft 11 kts 341°
2026-04-24 14:13 55.41858 37.88016 597 ft 10 kts 58°
2026-04-24 14:13 55.41914 37.88071 597 ft 8 kts 357°
2026-04-24 14:13 55.41972 37.88056 597 ft 8 kts 350°
2026-04-24 14:13 55.42030 37.88037 597 ft 8 kts 344°
2026-04-24 14:14 55.42078 37.87993 597 ft 6 kts 326°
2026-04-24 14:14 55.42112 37.87951 597 ft 5 kts 325°
2026-04-24 14:14 55.42167 37.87883 597 ft 4 kts 327°
2026-04-24 14:15 55.42190 37.87848 597 ft 3 kts 303°
2026-04-24 14:15 55.42199 37.87813 597 ft 2 kts 293°
2026-04-24 14:15 55.42204 37.87792 597 ft 1 kts 290°
2026-04-24 14:15 55.42206 37.87775 597 ft 1 kts 274°
2026-04-24 14:16 55.42205 37.87759 597 ft 1 kts 256°
2026-04-24 14:16 55.42202 37.87748 597 ft 0 kts 244°
2026-04-24 14:16 55.42197 37.87732 597 ft 2 kts 237°
2026-04-24 14:17 55.42188 37.87708 597 ft 0 kts 234°
2026-04-24 14:17 55.42184 37.87700 597 ft 0 kts 234°
2026-04-24 14:17 55.42177 37.87682 597 ft 0 kts 235°
2026-04-24 14:18 55.42174 37.87673 597 ft 0 kts 235°
2026-04-24 14:18 55.42172 37.87668 597 ft 0 kts 235°